Location: NJAA Observatory
(40.6819°N, 74.8979°W)
Time: 04:17:51
(UTC-04:00)

Transit 2A Rocket - Visible Passes

Search period start: 21 April 2015 00:00
Search period end: 01 May 2015 00:00
Orbit: 585 x 921 km, 66.7° (Epoch: 19 April)

Date Brightness Start Highest point End Pass type
(mag) Time Alt. Az. Time Alt. Az. Time Alt. Az.
21 Apr 6.2 21:15:39 25° SE 21:16:45 27° ESE 21:21:52 10° NE visible
21 Apr 6.0 22:55:18 21° WSW 22:59:12 52° NW 23:05:12 10° NNE visible
22 Apr 8.1 00:40:44 10° WNW 00:43:27 13° NNW 00:45:55 10° N visible
22 Apr 6.7 20:31:36 10° SE 20:34:57 16° ESE 20:38:40 10° ENE visible
22 Apr 5.4 22:11:01 10° SSW 22:17:00 81° WNW 22:23:13 10° NNE visible
22 Apr 7.8 23:56:35 10° W 00:00:45 18° NW 00:04:45 10° N visible
23 Apr 8.1 05:14:48 10° N 05:18:04 15° NE 05:21:22 10° ENE visible
23 Apr 5.3 21:29:04 10° SSW 21:34:57 64° ESE 21:41:03 10° NE visible
23 Apr 7.3 23:13:07 10° WSW 23:18:11 26° NW 23:23:12 10° N visible
24 Apr 8.4 04:34:12 10° NNE 04:35:20 11° NNE 04:36:40 10° NE visible
24 Apr 5.8 20:47:33 10° S 20:53:00 39° ESE 20:58:41 10° NE visible
24 Apr 6.7 22:30:07 10° WSW 22:35:45 38° NW 22:41:27 10° NNE visible
25 Apr 7.4 05:32:22 10° NNW 05:37:21 30° NE 05:42:01 10° ESE visible
25 Apr 5.9 21:47:30 10° SW 21:53:28 59° NW 21:59:33 10° NNE visible
25 Apr 8.2 23:34:21 10° WNW 23:37:33 14° NW 23:40:32 10° N visible
26 Apr 8.0 04:50:44 10° N 04:54:50 20° NE 04:58:49 10° E visible
26 Apr 5.3 21:05:17 10° SSW 21:11:18 89° ESE 21:17:31 10° NNE visible
26 Apr 7.9 22:50:26 10° W 22:54:54 20° NW 22:59:13 10° N visible
27 Apr 8.3 04:09:25 10° N 04:12:10 14° NE 04:15:02 10° ENE visible
27 Apr 5.5 20:23:27 10° S 20:29:17 56° ESE 20:35:18 10° NE visible
27 Apr 7.3 22:07:07 10° WSW 22:12:22 29° NW 22:17:36 10° NNE visible
28 Apr 6.7 05:08:34 10° NNW 05:13:55 40° NE 05:18:51 10° ESE visible
28 Apr 6.7 21:24:12 10° SW 21:29:59 43° NW 21:35:48 10° NNE visible
28 Apr 8.6 23:12:51 10° NW 23:14:25 11° NNW 23:15:43 10° NNW visible
29 Apr 7.4 04:26:47 10° N 04:31:30 26° NE 04:35:58 10° ESE visible
29 Apr 5.8 20:41:42 10° SW 20:47:43 67° WNW 20:53:52 10° NNE visible
29 Apr 8.3 22:28:03 10° WNW 22:31:40 15° NW 22:35:05 10° N visible
30 Apr 8.0 03:45:13 10° N 03:48:57 18° NE 03:52:38 10° E visible
30 Apr 5.1 05:26:53 10° NNW 05:32:33 87° WSW 05:37:39 10° SSE visible
30 Apr 7.9 21:44:18 10° W 21:49:02 22° NW 21:53:39 10° N visible
